Doha, Qatar

5:12 AM +03 on April 29, 2017 (GMT +0300)
Doha International

Weather History for OTBD - January, 2013

Change the Weather History Date:

Monday, January 28, 2013

  Actual Average Record
Temperature  
Mean Temperature 72 °F -  
Max Temperature 81 °F 73 °F 81 °F (2013)
Min Temperature 64 °F 57 °F 51 °F (1997)
Cooling Degree Days 8    
Growing Degree Days 22 (Base 50)    
Moisture  
Dew Point 56 °F    
Average Humidity 63    
Maximum Humidity 83    
Minimum Humidity 18    
Precipitation  
Precipitation 0.00 in 0.02 in - ()
Sea Level Pressure  
Sea Level Pressure 30.01 in    
Wind  
Wind Speed 5 mph ()    
Max Wind Speed 9 mph    
Max Gust Speed -    
Visibility 5.2 miles    
Events      
Averages and records for this station are not official NWS values.
T = Trace of Precipitation, MM = Missing Value Source: Averaged Metar Reports

Daily Weather History Graph

Daily Weather History Graph

Search for Another Location

Airport or City:

Trip Planner

Search our weather history database for the weather conditions in past years. The results will help you decide how hot, cold, wet, or windy it might be!

Date:

Astronomy

Jan. 28, 2013 Rise Set
Actual Time 6:18 AM +03 5:15 PM +03
Civil Twilight 5:54 AM +03 5:39 PM +03
Nautical Twilight 5:26 AM +03 6:06 PM +03
Astronomical Twilight 4:59 AM +03 6:34 PM +03
Moon 6:31 PM +03 (1/28) 6:43 AM +03 (1/28)
Length of Visible Light 11h 45m
Length of Day
10h 56m
Full, 99% of the Moon is Illuminated
Jan 28
Full
Feb 3
Last Quarter
Feb 10
New
Feb 17
First Quarter
Feb 25
Full

Hourly Weather History & Observations

Time (+03) Temp. Dew Point Humidity Pressure Visibility Wind Dir Wind Speed Gust Speed Precip Events Conditions
12:00 AM 69.8 °F 53.6 °F 56% 30.06 in - South 4.6 mph - N/A   Clear
1:00 AM 68.0 °F 57.2 °F 68% 30.06 in - Variable 2.3 mph - N/A   Clear
2:00 AM 68.0 °F 57.2 °F 68% 30.04 in - Calm Calm - N/A   Clear
3:00 AM 67 °F 57 °F 63% 30.05 in 6 mi 2.3 mph - -  
3:00 AM 66.2 °F 57.2 °F 73% 30.04 in - Variable 2.3 mph - N/A   Clear
3:30 AM 66.2 °F 57.2 °F 73% 30.04 in - SSW 4.6 mph - N/A   Clear
4:00 AM 66.2 °F 59.0 °F 78% 30.04 in - SSW 4.6 mph - N/A   Clear
4:30 AM 64.4 °F 57.2 °F 77% 30.04 in - SSW 4.6 mph - N/A   Clear
5:00 AM 64.4 °F 57.2 °F 77% 30.04 in 5.6 mi SW 5.8 mph - N/A   Unknown
5:30 AM 64.4 °F 59.0 °F 83% 30.04 in 5.0 mi SW 4.6 mph - N/A   Unknown
6:00 AM 64.4 °F 59.0 °F 83% 30.06 in 4.3 mi SW 4.6 mph - N/A   Unknown
6:30 AM 64.4 °F 59.0 °F 83% 30.06 in 4.3 mi SW 4.6 mph - N/A   Unknown
7:00 AM 66.2 °F 57.2 °F 73% 30.06 in 4.3 mi SSW 3.5 mph - N/A   Unknown
7:30 AM 66.2 °F 57.2 °F 73% 30.06 in 4.3 mi South 3.5 mph - N/A   Unknown
8:00 AM 68.0 °F 57.2 °F 68% 30.06 in 4.3 mi SSW 4.6 mph - N/A   Unknown
8:30 AM 69.8 °F 53.6 °F 56% 30.06 in 5.0 mi SSW 5.8 mph - N/A   Unknown
9:00 AM 72 °F 53 °F 40% 30.09 in 5 mi SSW 5.8 mph - -   Smoke
9:00 AM 71.6 °F 53.6 °F 53% 30.06 in 5.0 mi SSW 5.8 mph - N/A   Unknown
9:30 AM 73.4 °F 51.8 °F 47% 30.09 in 5.6 mi SSW 8.1 mph - N/A   Unknown
10:00 AM 75.2 °F 50.0 °F 41% 30.06 in 5.6 mi South 6.9 mph - N/A   Unknown
10:30 AM 78.8 °F 50.0 °F 36% 30.06 in 5.6 mi South 5.8 mph - N/A   Unknown
11:00 AM 80.6 °F 46.4 °F 30% 30.04 in - South 6.9 mph - N/A   Clear
12:00 PM 80.6 °F 44.6 °F 28% 30.01 in - SSE 6.9 mph - N/A   Clear
12:30 PM 80.6 °F 48.2 °F 32% 30.01 in - SSE 6.9 mph - N/A   Clear
1:00 PM 80.6 °F 48.2 °F 32% 29.98 in - SE 9.2 mph - N/A   Clear
2:00 PM 80.6 °F 44.6 °F 28% 29.98 in - SE 8.1 mph - N/A   Clear
2:30 PM 80.6 °F 42.8 °F 26% 29.98 in - SE 9.2 mph - N/A   Clear
3:00 PM 79 °F 43 °F 18% 29.97 in 9 mi SE 8.1 mph - -   Clear
3:00 PM 78.8 °F 42.8 °F 28% 29.95 in - SE 8.1 mph - N/A   Clear
4:00 PM 73.4 °F 57.2 °F 57% 29.95 in - ESE 8.1 mph - N/A   Clear
4:30 PM 71.6 °F 59.0 °F 64% 29.95 in - ESE 8.1 mph - N/A   Clear
5:00 PM 69.8 °F 60.8 °F 73% 29.95 in - ESE 5.8 mph - N/A   Clear
5:30 PM 69.8 °F 62.6 °F 78% 29.95 in - ESE 6.9 mph - N/A   Clear
6:00 PM 69.8 °F 62.6 °F 78% 29.95 in - East 3.5 mph - N/A   Clear
6:30 PM 69.8 °F 64.4 °F 83% 29.95 in - East 4.6 mph - N/A   Clear
7:00 PM 69.8 °F 64.4 °F 83% 29.95 in - East 5.8 mph - N/A   Clear
7:30 PM 69.8 °F 64.4 °F 83% 29.95 in 5.0 mi East 6.9 mph - N/A   Unknown
8:00 PM 69.8 °F 64.4 °F 83% 29.95 in 5.0 mi East 6.9 mph - N/A   Unknown
9:00 PM 69 °F 62 °F 72% 29.97 in 6 mi East 6.9 mph - -   Clear
9:00 PM 69.8 °F 62.6 °F 78% 29.95 in - East 6.9 mph - N/A   Clear
9:30 PM 69.8 °F 62.6 °F 78% 29.95 in - ESE 6.9 mph - N/A   Clear
10:00 PM 69.8 °F 62.6 °F 78% 29.95 in - ESE 8.1 mph - N/A   Clear
10:30 PM 69.8 °F 64.4 °F 83% 29.95 in 5.0 mi ESE 5.8 mph - N/A   Unknown
11:00 PM 69.8 °F 64.4 °F 83% 29.92 in 4.3 mi ESE 9.2 mph - N/A   Unknown
11:30 PM 69.8 °F 64.4 °F 83% 29.92 in 4.3 mi ESE 6.9 mph - N/A   Unknown